TimeEDT,TemperatureF,Dew PointF,Humidity,Sea Level PressureIn,VisibilityMPH,Wind Direction,Wind SpeedMPH,Gust SpeedMPH,PrecipitationIn,Events,Conditions,WindDirDegrees,DateUTC
12:53 AM,80.1,77.0,90,30.11,10.0,ENE,6.9,-,N/A,,Partly Cloudy,70,2012-10-05 04:53:00
1:53 AM,77.0,75.0,94,30.11,10.0,West,5.8,-,N/A,,Mostly Cloudy,280,2012-10-05 05:53:00
2:30 AM,77.0,75.2,94,30.10,10.0,NNW,3.5,-,N/A,,Scattered Clouds,330,2012-10-05 06:30:00
2:53 AM,77.0,75.9,96,30.08,10.0,Calm,Calm,-,N/A,,Partly Cloudy,0,2012-10-05 06:53:00
4:31 AM,75.2,75.2,100,30.07,10.0,Calm,Calm,-,N/A,,Mostly Cloudy,0,2012-10-05 08:31:00
4:41 AM,77.0,75.2,94,30.07,10.0,Calm,Calm,-,N/A,,Mostly Cloudy,0,2012-10-05 08:41:00
4:53 AM,79.0,77.0,94,30.07,10.0,ENE,8.1,-,N/A,,Scattered Clouds,70,2012-10-05 08:53:00
5:53 AM,79.0,75.0,88,30.07,10.0,ENE,4.6,-,N/A,,Clear,70,2012-10-05 09:53:00
6:53 AM,80.1,75.9,87,30.07,10.0,East,5.8,-,N/A,,Clear,80,2012-10-05 10:53:00
7:53 AM,81.0,77.0,88,30.06,10.0,East,4.6,-,N/A,,Partly Cloudy,90,2012-10-05 11:53:00
8:53 AM,82.0,77.0,85,30.07,10.0,East,5.8,-,N/A,,Mostly Cloudy,90,2012-10-05 12:53:00
9:53 AM,84.0,75.9,76,30.07,10.0,SE,5.8,-,N/A,,Mostly Cloudy,130,2012-10-05 13:53:00
10:34 AM,84.2,77.0,79,30.07,10.0,East,8.1,-,N/A,,Mostly Cloudy,90,2012-10-05 14:34:00
10:53 AM,84.0,77.0,79,30.07,10.0,ENE,6.9,-,N/A,,Mostly Cloudy,70,2012-10-05 14:53:00
11:53 AM,86.0,75.9,72,30.06,10.0,East,10.4,-,0.00,,Mostly Cloudy,100,2012-10-05 15:53:00
1:53 PM,84.0,75.0,74,30.02,10.0,East,9.2,-,N/A,,Clear,80,2012-10-05 17:53:00
2:53 PM,82.9,75.0,77,29.99,10.0,ENE,9.2,-,N/A,,Scattered Clouds,70,2012-10-05 18:53:00
3:53 PM,84.9,77.0,77,29.99,10.0,ENE,9.2,-,N/A,,Mostly Cloudy,70,2012-10-05 19:53:00
4:53 PM,82.9,75.0,77,29.98,10.0,ENE,8.1,-,N/A,,Mostly Cloudy,60,2012-10-05 20:53:00
5:53 PM,82.0,75.0,79,29.99,10.0,NE,8.1,-,N/A,,Mostly Cloudy,50,2012-10-05 21:53:00
6:53 PM,82.0,75.0,79,29.98,10.0,ENE,8.1,-,N/A,,Scattered Clouds,60,2012-10-05 22:53:00
7:53 PM,80.1,75.0,85,30.00,10.0,ENE,9.2,-,0.00,,Scattered Clouds,60,2012-10-05 23:53:00
8:53 PM,80.1,77.0,90,30.01,10.0,ENE,5.8,-,0.01,Rain,Light Rain,70,2012-10-06 00:53:00
9:35 PM,80.6,75.2,84,30.02,10.0,ESE,4.6,-,0.02,Rain,Light Rain,110,2012-10-06 01:35:00
9:53 PM,80.1,75.9,87,30.02,10.0,East,5.8,-,0.02,Rain,Light Rain,90,2012-10-06 01:53:00
10:53 PM,79.0,75.9,90,30.00,10.0,SE,4.6,-,0.01,Rain,Light Rain,130,2012-10-06 02:53:00
11:53 PM,80.1,77.0,90,29.99,10.0,East,9.2,-,0.00,,Scattered Clouds,100,2012-10-06 03:53:00